Location: Copeville
(33.0796°N, 96.4155°W)
Time: 22:21:36
(UTC+00:00)

SEEDS - Pass Details

Date: 07 April 2023
Orbit: 568 x 587 km, 97.7° (Epoch: 27 May)

Event Time Altitude Azimuth Distance (km) Brightness Sun altitude
Rises 11:29:42 0° 346° (NNW) 2,826 ? -8.3°
Reaches altitude 10° 11:33:02 10° 317° (NW) 1,918 ? -7.6°
Maximum altitude 11:34:46 12° 293° (WNW) 1,757 ? -7.2°
Drops below altitude 10° 11:36:31 10° 268° (W) 1,909 ? -6.9°
Enters shadow 11:37:12 - 259° (W) 2,044 ? -6.8°
